Home > Weather > Serekunda > Past weeks

Flag for Gambia Weather for the Past 2 Weeks in Serekunda, Gambia

Now
72 °F

Clear.


Feels Like: 76 °F
Forecast: 70 / 87 °F
Wind: 6 mph from Northeast

Location: Banjul / Yundum

Current Time: Feb 11, 2016 at 2:51:07 AM

Latest Report: Feb 11, 2016 at 2:00 AM


Visibility: 6 mi

Pressure: 29.89 "Hg

Humidity: 57%

Dew point: 55 °F

Location of SerekundaLocation

Historic Weather in Serekunda — Graph

°F

Serekunda Temperature Yesterday

Maximum temperature yesterday: 95 °F (at 3:00 PM)
Minimum temperature yesterday: 70 °F (at 4:00 AM)
Average temperature yesterday: 80 °F

High & Low Weather Summary for the Past Weeks

 TemperatureHumidityPressure
High100 °F (Feb 7, 3:00 PM)94% (Jan 29, 6:00 AM)30.01 "Hg (Jan 29, 6:00 AM)
Low63 °F (Feb 4, 5:00 AM)11% (Feb 7, 3:00 PM)29.80 "Hg (Feb 2, 5:00 PM)
Average80 °F37%29.90 "Hg
* Reported Jan 27 1:00 AM — Feb 11 1:00 AM, Serekunda, Weather by CustomWeather, © 2016

Note: Actual official high and low records may vary slightly from our data, if they occured in-between our weather recording intervals... More about our weather records

Advertising

Serekunda Weather History for the Previous 24 Hours

 ConditionsComfort  
Time TempWeatherWind HumidityBarometerVisibility
1:00 AM
Thu, Feb 11
70 °FClear.6 mph64%29.89 "Hg6 mi
12:00 AM73 °FClear.6 mph57%29.89 "Hg6 mi
11:00 PM
Wed, Feb 10
75 °FClear.6 mph50%29.89 "Hg6 mi
10:00 PM75 °FClear.No wind47%29.86 "Hg6 mi
9:00 PM79 °FClear.7 mph39%29.89 "Hg6 mi
8:00 PM81 °FClear.No wind32%29.86 "Hg6 mi
7:00 PM84 °FSunny.No wind18%29.83 "Hg10 mi
6:00 PM90 °FClear.6 mph20%29.83 "Hg6 mi
5:00 PM93 °FClear.5 mph13%29.83 "Hg6 mi
4:00 PM95 °FClear.8 mph15%29.83 "Hg6 mi
3:00 PM95 °FClear.10 mph16%29.86 "Hg6 mi
2:00 PM90 °FClear.10 mph14%29.86 "Hg6 mi
1:00 PM91 °FClear.6 mph17%29.89 "Hg6 mi
12:00 PM86 °FClear.12 mph20%29.89 "Hg6 mi
11:00 AM81 °FClear.13 mph21%29.92 "Hg6 mi
10:00 AM73 °FClear.6 mph33%29.95 "Hg6 mi
8:00 AM73 °FClear.10 mph23%29.89 "Hg6 mi
7:00 AM72 °FClear.8 mph29%29.92 "Hg6 mi
6:00 AM72 °FClear.7 mph27%29.92 "Hg6 mi
5:00 AM72 °FClear.9 mph29%29.92 "Hg6 mi
4:00 AM70 °FClear.6 mph35%29.92 "Hg6 mi
3:00 AM72 °FClear.8 mph31%29.92 "Hg6 mi
2:00 AM72 °FClear.6 mph44%29.95 "Hg6 mi
Weather by CustomWeather, © 2016

See weather overviewHow to use our weather pages